Home > Weather > Trieste > Past weeks

Flag for Italy Weather for the Past 2 Weeks in Trieste, Italy

Now
50 °F

Light rain. Overcast.


Feels Like: 50 °F
Forecast: 50 / 56 °F
Wind: No wind

Location: Trieste

Current Time: Feb 7, 2016 at 10:49:10 AM

Latest Report: Feb 7, 2016 at 10:00 AM


Visibility: 6 mi

Pressure: 30.11 "Hg

Humidity: 84%

Dew point: 46 °F

Location of TriesteLocation

Historic Weather in Trieste — Graph

°F

Trieste Temperature Yesterday

Maximum temperature yesterday: 53 °F (at 1:00 PM)
Minimum temperature yesterday: 40 °F (at 4:00 AM)
Average temperature yesterday: 47 °F

High & Low Weather Summary for the Past Weeks

 TemperatureHumidityPressure
High54 °F (Feb 5, 3:00 PM)100% (Jan 27, 6:00 AM)30.59 "Hg (Jan 27, 6:00 AM)
Low35 °F (Jan 24, 7:00 AM)52% (Feb 4, 6:00 AM)29.87 "Hg (Feb 3, 6:00 PM)
Average46 °F86%30.31 "Hg
* Reported Jan 23 9:00 AM — Feb 7 9:00 AM, Trieste, Weather by CustomWeather, © 2016

Note: Actual official high and low records may vary slightly from our data, if they occured in-between our weather recording intervals... More about our weather records

Advertising

Trieste Weather History for the Previous 24 Hours

 ConditionsComfort  
Time TempWeatherWind HumidityBarometerVisibility
9:00 AM
Sun, Feb 7
50 °FLight rain. Overcast.1 mph82%30.12 "Hg6 mi
8:00 AM50 °FOvercast.2 mph80%30.16 "Hg12 mi
7:00 AM50 °FPassing clouds.5 mph82%30.16 "Hg6 mi
6:00 AM49 °FOvercast.No wind84%30.16 "Hg6 mi
5:00 AM48 °FOvercast.No wind83%30.19 "Hg6 mi
9:00 PM
Sat, Feb 6
46 °FPassing clouds.No wind92%30.32 "Hg6 mi
8:00 PM47 °FOvercast.2 mph92%30.32 "Hg6 mi
7:00 PM49 °FOvercast.2 mph93%30.30 "Hg6 mi
6:00 PM50 °FOvercast.2 mph93%30.31 "Hg12 mi
5:00 PM51 °FPartly sunny.No wind82%30.31 "Hg12 mi
4:00 PM53 °FPassing clouds.No wind76%30.31 "Hg12 mi
3:00 PM52 °FPassing clouds.No wind75%30.33 "Hg12 mi
2:00 PM53 °FPassing clouds.No wind75%30.34 "Hg12 mi
1:00 PM53 °FPassing clouds.No wind76%30.37 "Hg12 mi
12:00 PM51 °FPassing clouds.No wind75%30.39 "Hg12 mi
11:00 AM51 °FScattered clouds.No wind70%30.41 "Hg12 mi
10:00 AM49 °FScattered clouds.No wind72%30.41 "Hg12 mi
Weather by CustomWeather, © 2016

See weather overviewHow to use our weather pages